When you browse on this site, cookies collect data to enhance your experience and personalize the content and advertising you see.
Visit our Privacy Policy to learn more. By continuing to use the site, you agree to this use of cookies and data.

Hourly Weather Pamporovo

Today, 12 August, Wednesday

Time Temperature Precipitation Wind Pressure Humidity
00:00 +14°C° 0 mm 1 mps 627 mmHg 67%
01:00 +13°C° 0 mm 1 mps 626 mmHg 68%
02:00 +13°C° 0 mm 1 mps 626 mmHg 70%
03:00 +13°C° 0 mm 1 mps 626 mmHg 70%
04:00 +13°C° 0 mm 1 mps 626 mmHg 70%
05:00 +12°C° 0 mm 1 mps 626 mmHg 69%
06:00 +15°C° 0 mm 1 mps 627 mmHg 64%
07:00 +18°C° 0 mm 1 mps 628 mmHg 58%
08:00 +20°C° 0 mm 1 mps 629 mmHg 52%
09:00 +21°C° 0 mm 1 mps 629 mmHg 48%
10:00 +23°C° 0 mm 1 mps 630 mmHg 44%
11:00 +24°C° 0 mm 1 mps 630 mmHg 39%
12:00 +24°C° 0 mm 1 mps 630 mmHg 41%
13:00 +23°C° 0 mm 1 mps 629 mmHg 42%
14:00 +23°C° 0 mm 1 mps 629 mmHg 44%
15:00 +22°C° 0.1 mm 1 mps 629 mmHg 48%
16:00 +22°C° 0.1 mm 1 mps 628 mmHg 52%
17:00 +21°C° 0.1 mm 1 mps 628 mmHg 56%
18:00 +19°C° 0.1 mm 1 mps 627 mmHg 61%
19:00 +18°C° 0.1 mm 1 mps 627 mmHg 66%
20:00 +15°C° 0.1 mm 1 mps 627 mmHg 71%
21:00 +15°C° 0.1 mm 1 mps 627 mmHg 72%
22:00 +14°C° 0.1 mm 1 mps 627 mmHg 73%
23:00 +14°C° 0.1 mm 1 mps 627 mmHg 74%

Tomorrow, 13 August, Thursday

Time Temperature Precipitation Wind Pressure Humidity
00:00 +14°C° 0.1 mm 1 mps 627 mmHg 75%
01:00 +13°C° 0.1 mm 1 mps 626 mmHg 76%
02:00 +13°C° 0.1 mm 1 mps 626 mmHg 77%
03:00 +13°C° 0 mm 1 mps 626 mmHg 79%
04:00 +12°C° 0 mm 1 mps 626 mmHg 80%
05:00 +12°C° 0 mm 1 mps 626 mmHg 81%
06:00 +14°C° 0.1 mm 1 mps 627 mmHg 77%
07:00 +16°C° 0.1 mm 1 mps 628 mmHg 74%
08:00 +18°C° 0.1 mm 1 mps 629 mmHg 70%
09:00 +19°C° 0.7 mm 1 mps 629 mmHg 67%
10:00 +21°C° 0.7 mm 1 mps 630 mmHg 63%
11:00 +22°C° 0.7 mm 1 mps 630 mmHg 60%
12:00 +22°C° 0.8 mm 1 mps 630 mmHg 59%
13:00 +23°C° 0.8 mm 1 mps 630 mmHg 58%
14:00 +23°C° 0.8 mm 1 mps 630 mmHg 56%
15:00 +22°C° 0.6 mm 1 mps 629 mmHg 58%
16:00 +21°C° 0.6 mm 1 mps 629 mmHg 59%
17:00 +21°C° 0.6 mm 1 mps 629 mmHg 61%
18:00 +19°C° 0.2 mm 1 mps 628 mmHg 65%
19:00 +16°C° 0.2 mm 1 mps 628 mmHg 69%
20:00 +15°C° 0.2 mm 1 mps 627 mmHg 73%
21:00 +14°C° 0 mm 1 mps 627 mmHg 74%
22:00 +13°C° 0 mm 1 mps 627 mmHg 75%
23:00 +13°C° 0 mm 1 mps 627 mmHg 76%

Day after tomorrow, 14 August, Friday

Time Temperature Precipitation Wind Pressure Humidity
00:00 +12°C° 0 mm 1 mps 627 mmHg 77%
01:00 +12°C° 0 mm 1 mps 626 mmHg 78%
02:00 +12°C° 0 mm 1 mps 626 mmHg 80%
03:00 +11°C° 0 mm 1 mps 626 mmHg 80%
04:00 +11°C° 0 mm 1 mps 626 mmHg 81%
05:00 +11°C° 0 mm 1 mps 626 mmHg 82%
06:00 +12°C° 0 mm 0 mps 627 mmHg 77%
07:00 +14°C° 0 mm 0 mps 627 mmHg 72%
08:00 +16°C° 0 mm 0 mps 628 mmHg 67%
09:00 +19°C° 0.1 mm 1 mps 629 mmHg 61%
10:00 +21°C° 0.1 mm 1 mps 629 mmHg 55%
11:00 +23°C° 0.1 mm 1 mps 630 mmHg 49%
12:00 +22°C° 0.2 mm 1 mps 629 mmHg 52%
13:00 +22°C° 0.2 mm 1 mps 629 mmHg 54%
14:00 +22°C° 0.2 mm 1 mps 628 mmHg 57%
15:00 +21°C° 0.3 mm 1 mps 628 mmHg 57%
16:00 +21°C° 0.3 mm 1 mps 628 mmHg 57%
17:00 +21°C° 0.3 mm 1 mps 627 mmHg 57%
18:00 +19°C° 0.1 mm 1 mps 627 mmHg 62%
19:00 +16°C° 0.1 mm 1 mps 626 mmHg 67%
20:00 +15°C° 0.1 mm 1 mps 626 mmHg 72%
21:00 +14°C° 0 mm 1 mps 626 mmHg 73%
22:00 +13°C° 0 mm 1 mps 626 mmHg 74%
23:00 +12°C° 0 mm 1 mps 626 mmHg 74%

15 August, Saturday

Time Temperature Precipitation Wind Pressure Humidity
00:00 +12°C° 0 mm 1 mps 625 mmHg 75%
01:00 +12°C° 0 mm 1 mps 625 mmHg 76%
02:00 +11°C° 0 mm 1 mps 625 mmHg 77%
03:00 +11°C° 0 mm 1 mps 625 mmHg 77%
04:00 +11°C° 0 mm 1 mps 625 mmHg 78%
05:00 +11°C° 0 mm 1 mps 625 mmHg 78%
06:00 +13°C° 0 mm 1 mps 626 mmHg 73%
07:00 +15°C° 0 mm 1 mps 626 mmHg 67%
08:00 +16°C° 0 mm 0 mps 627 mmHg 61%
09:00 +19°C° 0.1 mm 1 mps 628 mmHg 57%
10:00 +20°C° 0.1 mm 1 mps 628 mmHg 52%
11:00 +21°C° 0.1 mm 2 mps 629 mmHg 48%
12:00 +21°C° 0.5 mm 2 mps 628 mmHg 49%
13:00 +21°C° 0.5 mm 2 mps 628 mmHg 49%
14:00 +21°C° 0.5 mm 2 mps 628 mmHg 50%
15:00 +21°C° 0.4 mm 1 mps 627 mmHg 53%
16:00 +21°C° 0.4 mm 1 mps 627 mmHg 56%
17:00 +20°C° 0.4 mm 1 mps 626 mmHg 59%
18:00 +18°C° 0.2 mm 1 mps 626 mmHg 62%
19:00 +16°C° 0.2 mm 1 mps 626 mmHg 65%
20:00 +15°C° 0.2 mm 1 mps 625 mmHg 67%
21:00 +14°C° 0 mm 1 mps 625 mmHg 67%
22:00 +13°C° 0 mm 1 mps 625 mmHg 67%
23:00 +12°C° 0 mm 1 mps 625 mmHg 67%

16 August, Sunday

Time Temperature Precipitation Wind Pressure Humidity
00:00 +12°C° 0 mm 1 mps 625 mmHg 67%
01:00 +11°C° 0 mm 1 mps 625 mmHg 68%
02:00 +11°C° 0 mm 1 mps 625 mmHg 68%
03:00 +11°C° 0.1 mm 1 mps 624 mmHg 68%
04:00 +11°C° 0.1 mm 1 mps 624 mmHg 67%
05:00 +11°C° 0.1 mm 1 mps 624 mmHg 67%
06:00 +11°C° 0.1 mm 1 mps 625 mmHg 68%
07:00 +12°C° 0.1 mm 1 mps 625 mmHg 69%
08:00 +12°C° 0.1 mm 1 mps 625 mmHg 70%
09:00 +14°C° 0 mm 1 mps 626 mmHg 63%
10:00 +16°C° 0 mm 1 mps 627 mmHg 57%
11:00 +19°C° 0 mm 1 mps 628 mmHg 50%
12:00 +19°C° 0.1 mm 2 mps 628 mmHg 51%
13:00 +19°C° 0.1 mm 2 mps 628 mmHg 51%
14:00 +19°C° 0.1 mm 2 mps 628 mmHg 52%
15:00 +19°C° 0.5 mm 2 mps 627 mmHg 56%
16:00 +18°C° 0.5 mm 2 mps 627 mmHg 60%
17:00 +18°C° 0.5 mm 2 mps 627 mmHg 65%
18:00 +16°C° 0.2 mm 2 mps 626 mmHg 68%
19:00 +15°C° 0.2 mm 1 mps 626 mmHg 72%
20:00 +13°C° 0.2 mm 1 mps 625 mmHg 76%
21:00 +12°C° 0 mm 1 mps 626 mmHg 78%
22:00 +11°C° 0 mm 1 mps 626 mmHg 80%
23:00 +10°C° 0 mm 1 mps 626 mmHg 82%

17 August, Monday

Time Temperature Precipitation Wind Pressure Humidity
00:00 +10°C° 0 mm 1 mps 625 mmHg 83%
01:00 +9°C° 0 mm 1 mps 625 mmHg 85%
02:00 +9°C° 0 mm 1 mps 625 mmHg 86%
03:00 +9°C° 0 mm 1 mps 625 mmHg 86%
04:00 +9°C° 0 mm 1 mps 625 mmHg 86%
05:00 +9°C° 0 mm 1 mps 625 mmHg 85%
06:00 +10°C° 0 mm 1 mps 626 mmHg 79%
07:00 +12°C° 0 mm 1 mps 627 mmHg 74%
08:00 +14°C° 0 mm 1 mps 628 mmHg 68%
09:00 +15°C° 0 mm 1 mps 628 mmHg 60%
10:00 +17°C° 0 mm 2 mps 629 mmHg 53%
11:00 +19°C° 0 mm 2 mps 630 mmHg 45%
12:00 +19°C° 0 mm 2 mps 630 mmHg 45%
13:00 +20°C° 0 mm 3 mps 630 mmHg 44%
14:00 +20°C° 0 mm 3 mps 629 mmHg 43%
15:00 +20°C° 0 mm 3 mps 629 mmHg 43%
16:00 +19°C° 0 mm 3 mps 629 mmHg 43%
17:00 +19°C° 0 mm 2 mps 629 mmHg 43%
18:00 +17°C° 0 mm 2 mps 628 mmHg 50%
19:00 +14°C° 0 mm 2 mps 627 mmHg 56%
20:00 +12°C° 0 mm 1 mps 626 mmHg 63%
21:00 +11°C° 0 mm 1 mps 626 mmHg 66%
22:00 +11°C° 0 mm 1 mps 626 mmHg 70%
23:00 +10°C° 0 mm 1 mps 626 mmHg 73%
Show more